Weather History for Frenchville, ME

Change the Weather History Date:

Friday, February 15, 2013

  Actual Average Record
Temperature  
Mean Temperature 24 °F 13 °F  
Max Temperature 29 °F 21 °F 37 °F (2002)
Min Temperature 18 °F 5 °F -22 °F (2004)
Degree Days  
Heating Degree Days 41    
Month to date heating degree days 833  
Since 1 July heating degree days 5940  
Cooling Degree Days 0    
Month to date cooling degree days 0  
Year to date cooling degree days 0  
Moisture  
Dew Point 24 °F    
Average Humidity 91    
Maximum Humidity 100    
Minimum Humidity 69    
Precipitation  
Precipitation T in 0.03 in 0.11 in (2007)
Month to date precipitation 0.12 0.33  
Year to date precipitation 1.10 2.09  
Sea Level Pressure  
Sea Level Pressure 29.87 in    
Wind  
Wind Speed 5 mph (SE)    
Max Wind Speed 13 mph    
Max Gust Speed 16 mph    
Visibility 4 miles    
Events Fog , Snow    
T = Trace of Precipitation, MM = Missing Value Source: NWS Daily Summary

Daily Weather History Graph

Daily Weather History Graph

Search for Another Location

Airport:

Trip Planner

Search our weather history database for the weather conditions in past years. The results will help you decide how hot, cold, wet, or windy it might be!

Date:

Astronomy

Feb. 15, 2013 Rise Set
Actual Time 6:37 AM EST 4:57 PM EST
Civil Twilight 6:06 AM EST 5:29 PM EST
Nautical Twilight 5:30 AM EST 6:04 PM EST
Astronomical Twilight 4:55 AM EST 6:40 PM EST
Moon 8:45 AM EST (2/15) 11:23 PM EST (2/15)
Length of Visible Light 11h 22m
Length of Day
10h 19m
Waxing Crescent, 30% of the Moon is Illuminated
Feb 15
Waxing Crescent
Feb 17
First Quarter
Feb 25
Full
Mar 4
Last Quarter
Mar 11
New

Hourly Weather History & Observations

Time (EST) Temp. Windchill Dew Point Humidity Pressure Visibility Wind Dir Wind Speed Gust Speed Precip Events Conditions
12:53 AM 19.9 °F 13.4 °F 17.1 °F 89% 29.93 in 10.0 mi SSE 4.6 mph - N/A   Clear
1:53 AM 19.9 °F - 17.1 °F 89% 29.93 in 10.0 mi Calm Calm - N/A   Scattered Clouds
2:53 AM 19.9 °F 14.9 °F 17.1 °F 89% 29.93 in 10.0 mi East 3.5 mph - N/A   Mostly Cloudy
3:53 AM 19.9 °F - 17.1 °F 89% 29.94 in 10.0 mi Calm Calm - N/A   Overcast
4:53 AM 19.9 °F - 16.0 °F 85% 29.94 in 10.0 mi Calm Calm - N/A   Overcast
5:53 AM 19.0 °F 13.9 °F 16.0 °F 88% 29.94 in 10.0 mi ESE 3.5 mph - N/A   Overcast
6:53 AM 18.0 °F 12.7 °F 15.1 °F 88% 29.95 in 10.0 mi ESE 3.5 mph - N/A   Overcast
7:53 AM 19.9 °F 13.4 °F 16.0 °F 85% 29.95 in 10.0 mi East 4.6 mph - N/A   Overcast
8:53 AM 21.9 °F 15.7 °F 17.1 °F 82% 29.94 in 10.0 mi East 4.6 mph - N/A   Overcast
9:53 AM 25.0 °F 16.3 °F 17.1 °F 72% 29.94 in 10.0 mi ESE 8.1 mph - N/A   Clear
10:53 AM 27.0 °F 18.7 °F 18.0 °F 69% 29.94 in 10.0 mi SSE 8.1 mph - N/A   Overcast
11:53 AM 27.0 °F 17.3 °F 21.0 °F 78% 29.91 in 2.0 mi SSE 10.4 mph - 0.00 in Snow Light Snow
11:55 AM 26.6 °F 16.2 °F 21.2 °F 80% 29.87 in 1.5 mi SSE 11.5 mph - 0.00 in Snow Light Snow
12:04 PM 26.6 °F 17.5 °F 23.0 °F 86% 29.86 in 1.0 mi SE 9.2 mph - 0.00 in Snow Light Snow
12:19 PM 26.6 °F 17.5 °F 23.0 °F 86% 29.86 in 1.8 mi SE 9.2 mph - 0.00 in Snow Light Snow
12:21 PM 26.6 °F 17.5 °F 23.0 °F 86% 29.86 in 2.0 mi SE 9.2 mph - 0.00 in Snow Light Snow
12:31 PM 26.6 °F 17.5 °F 23.0 °F 86% 29.85 in 1.5 mi SE 9.2 mph - 0.00 in Snow Light Snow
12:42 PM 26.6 °F 18.2 °F 24.8 °F 93% 29.85 in 1.5 mi SE 8.1 mph - 0.00 in Snow Light Snow
12:50 PM 26.6 °F 18.2 °F 24.8 °F 93% 29.84 in 1.2 mi SE 8.1 mph - 0.00 in Snow Light Snow
12:53 PM 27.0 °F 18.7 °F 24.1 °F 89% 29.88 in 1.2 mi SSE 8.1 mph - 0.00 in Snow Light Snow
1:26 PM 28.4 °F 20.4 °F 24.8 °F 86% 29.83 in 0.8 mi SE 8.1 mph - 0.00 in Snow Light Snow
1:37 PM 28.4 °F 20.4 °F 24.8 °F 86% 29.83 in 0.5 mi SSE 8.1 mph - 0.00 in Fog , Snow Light Snow
1:45 PM 28.4 °F 22.2 °F 26.6 °F 93% 29.83 in 0.5 mi SE 5.8 mph - 0.00 in Fog , Snow Snow
1:51 PM 28.4 °F 20.4 °F 26.6 °F 93% 29.83 in 1.0 mi SE 8.1 mph - 0.00 in Snow Light Snow
1:53 PM 28.0 °F 20.8 °F 26.1 °F 92% 29.87 in 1.2 mi SE 6.9 mph - 0.00 in Snow Light Snow
1:55 PM 28.4 °F 21.2 °F 26.6 °F 93% 29.83 in 2.5 mi SE 6.9 mph - 0.00 in Snow Light Snow
2:00 PM 28.4 °F 21.2 °F 26.6 °F 93% 29.83 in 5.0 mi SSE 6.9 mph - 0.00 in   Overcast
2:13 PM 28.4 °F 19.1 °F 26.6 °F 93% 29.83 in 1.8 mi SSE 10.4 mph - 0.00 in Snow Light Snow
2:18 PM 28.4 °F 19.1 °F 26.6 °F 93% 29.83 in 2.0 mi SSE 10.4 mph - 0.00 in Snow Light Snow
2:23 PM 28.4 °F 19.1 °F 26.6 °F 93% 29.83 in 3.0 mi SSE 10.4 mph - 0.00 in Snow Light Snow
2:34 PM 28.4 °F 19.1 °F 26.6 °F 93% 29.83 in 2.5 mi SSE 10.4 mph - 0.00 in Snow Light Snow
2:45 PM 28.4 °F 19.7 °F 26.6 °F 93% 29.83 in 1.5 mi SSE 9.2 mph - 0.00 in Snow Light Snow
2:53 PM 28.0 °F 18.6 °F 26.1 °F 92% 29.87 in 1.8 mi SSE 10.4 mph - 0.00 in Snow Light Snow
2:59 PM 28.4 °F 18.5 °F 26.6 °F 93% 29.83 in 3.0 mi SSE 11.5 mph - 0.00 in   Overcast
3:53 PM 28.9 °F 20.4 °F 26.1 °F 89% 29.87 in 8.0 mi SSE 9.2 mph - 0.00 in   Overcast
4:53 PM 28.9 °F 23.9 °F 27.0 °F 92% 29.88 in 10.0 mi SSE 4.6 mph - N/A   Overcast
5:19 PM 28.4 °F 21.2 °F 26.6 °F 93% 29.84 in 10.0 mi South 6.9 mph - N/A   Overcast
5:53 PM 28.9 °F 21.9 °F 26.1 °F 89% 29.88 in 10.0 mi South 6.9 mph - N/A   Overcast
6:04 PM 28.4 °F 21.2 °F 26.6 °F 93% 29.84 in 10.0 mi South 6.9 mph - N/A   Overcast
6:34 PM 28.4 °F 22.2 °F 26.6 °F 93% 29.84 in 10.0 mi SSE 5.8 mph - N/A   Mostly Cloudy
6:53 PM 28.0 °F 20.8 °F 27.0 °F 96% 29.88 in 9.0 mi SSE 6.9 mph - N/A   Overcast
7:19 PM 28.4 °F - 26.6 °F 93% 29.84 in 6.0 mi Calm Calm - N/A   Mostly Cloudy
7:53 PM 27.0 °F 23.0 °F 26.1 °F 96% 29.88 in 4.0 mi SE 3.5 mph - N/A   Overcast
8:16 PM 28.4 °F 23.3 °F 26.6 °F 93% 29.85 in 2.5 mi SE 4.6 mph - N/A   Overcast
8:22 PM 28.4 °F 23.3 °F 26.6 °F 93% 29.85 in 1.8 mi SE 4.6 mph - N/A   Overcast
8:26 PM 28.4 °F 23.3 °F 26.6 °F 93% 29.85 in 1.2 mi SE 4.6 mph - N/A   Overcast
8:37 PM 28.4 °F 22.2 °F 26.6 °F 93% 29.85 in 0.8 mi SE 5.8 mph - 0.00 in Snow Light Snow
8:45 PM 28.4 °F 22.2 °F 26.6 °F 93% 29.85 in 1.0 mi SSE 5.8 mph - 0.00 in Snow Light Snow
8:47 PM 28.4 °F 22.2 °F 26.6 °F 93% 29.84 in 1.5 mi SSE 5.8 mph - 0.00 in Snow Light Snow
8:51 PM 28.4 °F 21.2 °F 26.6 °F 93% 29.85 in 1.8 mi SSE 6.9 mph - 0.00 in Snow Light Snow
8:53 PM 28.0 °F 20.8 °F 27.0 °F 96% 29.88 in 1.8 mi SSE 6.9 mph - 0.00 in Snow Light Snow
9:03 PM 28.4 °F 22.2 °F 26.6 °F 93% 29.84 in 2.0 mi SSE 5.8 mph - 0.00 in Snow Light Snow
9:21 PM 28.4 °F 21.2 °F 26.6 °F 93% 29.85 in 1.5 mi SSE 6.9 mph - 0.00 in Snow Light Snow
9:27 PM 28.4 °F 22.2 °F 28.4 °F 100% 29.84 in 1.2 mi SSE 5.8 mph - 0.00 in Snow Light Snow
9:38 PM 28.4 °F 22.2 °F 28.4 °F 100% 29.85 in 1.8 mi SSE 5.8 mph - 0.00 in Snow Light Snow
9:53 PM 28.9 °F 22.8 °F 28.0 °F 96% 29.88 in 1.2 mi South 5.8 mph - 0.00 in Snow Light Snow
10:07 PM 28.4 °F 22.2 °F 26.6 °F 93% 29.83 in 1.8 mi ESE 5.8 mph - 0.00 in Snow Light Snow
10:16 PM 28.4 °F 24.6 °F 26.6 °F 93% 29.83 in 2.0 mi SE 3.5 mph - 0.00 in Snow Light Snow
10:25 PM 28.4 °F 23.3 °F 28.4 °F 100% 29.84 in 1.8 mi SSE 4.6 mph - 0.00 in   Overcast
10:32 PM 28.4 °F 24.6 °F 28.4 °F 100% 29.84 in 1.2 mi South 3.5 mph - 0.00 in   Overcast
10:40 PM 28.4 °F 24.6 °F 28.4 °F 100% 29.84 in 0.5 mi South 3.5 mph - 0.00 in Fog Light Freezing Fog
10:53 PM 28.9 °F 25.2 °F 27.0 °F 92% 29.88 in 0.2 mi South 3.5 mph - 0.00 in Fog Light Freezing Fog
11:53 PM 28.0 °F - 27.0 °F 96% 29.89 in 0.2 mi Calm Calm - N/A Fog Light Freezing Fog